Location: Eindhoven
(51.4416°N, 5.4697°E)
Time: 21:30:07
(UTC+01:00)

S-56A Canister/Altair - Visible Passes

Search period start: 13 November 2019 00:00
Search period end: 23 November 2019 00:00
Orbit: 634 x 2498 km, 38.9° (Epoch: 13 November)

Date Brightness Start Highest point End Pass type
(mag) Time Alt. Az. Time Alt. Az. Time Alt. Az.
13 Nov 9.7 19:45:29 10° SSW 19:49:05 17° S 19:49:05 17° S visible
14 Nov 9.6 19:12:34 10° SSW 19:17:09 18° SSE 19:18:15 17° SSE visible
14 Nov 10.5 21:15:39 10° SW 21:15:41 10° SW 21:15:41 10° SW visible
15 Nov 9.7 18:39:36 10° SSW 18:44:33 18° SSE 18:47:23 14° SE visible
15 Nov 10.0 20:42:38 10° SW 20:44:49 17° SW 20:44:49 17° SW visible
16 Nov 9.9 18:06:35 10° SSW 18:11:53 18° SSE 18:16:08 10° ESE visible
16 Nov 9.5 20:09:33 10° SW 20:13:56 23° SSW 20:13:56 23° SSW visible
17 Nov 10.1 17:33:34 10° SSW 17:39:12 18° SSE 17:43:42 10° ESE visible
17 Nov 9.3 19:36:25 10° SW 19:42:25 25° S 19:43:02 25° S visible
18 Nov 9.3 19:03:12 10° SW 19:09:49 27° S 19:12:08 22° SE visible
18 Nov 10.2 21:07:50 10° WSW 21:09:34 15° SW 21:09:34 15° SW visible
19 Nov 9.6 18:29:57 10° SW 18:37:09 28° S 18:41:14 15° SE visible
19 Nov 9.7 20:34:36 10° WSW 20:38:40 22° SW 20:38:40 22° SW visible
20 Nov 9.9 17:56:40 10° SW 18:04:26 28° S 18:10:06 10° ESE visible
20 Nov 9.4 20:01:19 10° WSW 20:07:37 27° SSW 20:07:45 27° S visible
21 Nov 10.1 17:23:20 10° SW 17:31:40 29° S 17:37:45 10° ESE visible
21 Nov 9.3 19:27:57 10° WSW 19:35:01 29° S 19:36:52 26° SSE visible
21 Nov 10.6 21:33:54 10° WSW 21:34:17 11° WSW 21:34:17 11° WSW visible
22 Nov 9.5 18:54:34 10° WSW 19:02:22 32° S 19:05:58 20° SE visible
22 Nov 10.2 21:00:22 10° WSW 21:03:25 17° SW 21:03:25 17° SW visible
